Wind_Speed
11 11 11 10 9 9 9 10 11 10 10 8 7 6 3 6 20 20 21 16 17 16 8 3 4 6 9 5 4 1 5 9 11 7 1 8 10 7 13 12 11 6 11 9 17
11 12 11 9 8 8 9 9 10 8 13 9 11 11 3 2 8 26 19 13 17 18 10 5 8 10 5 3 2 4 5 6 1 2 5 13 11 16 11 18 20 23 9 16 21
11 12 11 9 8 8 9 9 9 6 12 10 9 14 5 2 3 19 17 15 17 19 9 6 8 6 5 3 3 0 4 1 2 7 9 11 15 8 13 16 19 20 25 27 26
11 11 10 9 8 8 9 9 8 5 2 10 14 6 13 4 2 17 14 15 16 17 9 10 5 4 3 2 3 2 2 5 6 8 8 9 12 12 16 22 16 21 17 21 24
11 11 9 8 7 7 9 9 8 7 3 3 10 8 4 9 9 16 10 13 12 13 17 11 12 4 4 3 2 1 4 7 6 7 6 8 9 14 24 21 12 14 19 23 23
10 10 9 7 6 7 9 8 7 7 3 3 7 12 3 7 15 17 8 10 11 14 15 20 9 9 7 3 2 4 7 9 5 6 2 8 20 6 8 11 12 21 27 27 28
10 10 9 7 6 7 9 6 5 4 5 4 5 1 14 10 17 14 5 9 13 11 13 13 16 7 3 2 4 3 4 5 4 6 4 16 6 7 14 12 23 28 28 27 24
10 10 8 6 5 8 8 5 6 4 6 1 3 2 4 5 17 15 8 8 13 8 9 10 9 8 6 2 2 3 1 7 5 9 3 11 10 17 23 20 27 24 23 20 19
10 9 8 7 6 7 6 2 8 1 3 7 3 2 2 5 14 22 9 9 6 5 8 7 5 6 6 3 1 7 7 9 10 6 5 4 18 19 32 24 22 19 15 11 9
9 9 8 6 7 8 6 2 3 10 1 2 4 3 7 8 9 20 11 8 6 4 3 6 6 4 9 10 5 8 7 7 13 7 9 17 22 22 26 19 17 10 3 5 8
9 9 7 6 6 7 6 3 2 2 11 10 6 3 5 7 4 19 14 3 4 10 4 5 6 8 8 5 4 8 11 15 16 9 14 12 24 22 21 12 6 4 4 7 12
9 9 7 5 5 6 6 2 2 6 5 8 5 5 6 9 5 21 17 4 7 5 4 2 5 3 6 3 5 9 13 12 12 3 12 17 23 18 6 4 7 6 5 9 14
9 8 6 5 4 4 6 5 4 4 1 3 6 6 6 8 6 16 17 7 7 5 7 2 2 4 3 3 8 12 6 13 12 21 4 12 12 5 3 5 7 8 7 9 14
9 8 7 5 2 4 4 5 2 1 1 2 2 4 5 3 3 13 12 6 4 3 2 2 2 3 3 3 6 7 1 14 16 11 6 8 6 10 3 11 9 11 9 14 21
9 7 6 3 1 2 3 2 3 2 2 2 1 2 4 6 5 7 9 4 2 4 4 2 2 3 1 4 5 8 17 18 14 8 7 3 4 8 11 7 8 7 14 20 23
10 8 6 4 2 1 2 2 2 3 4 1 2 4 1 6 5 8 5 7 2 0 0 2 2 2 3 9 4 13 12 3 2 1 3 3 4 12 6 7 8 8 16 24 32
12 9 7 5 4 2 1 2 3 3 2 1 1 2 2 4 3 8 5 8 6 4 6 4 1 0 2 5 1 12 7 4 3 2 4 3 9 12 14 14 11 11 26 32 42
12 10 8 6 5 4 3 3 2 1 5 2 1 2 2 4 3 4 2 3 6 3 1 5 2 1 2 2 4 4 4 3 6 5 12 16 8 7 6 6 7 23 30 40 40
14 12 10 8 7 5 4 2 5 5 4 8 3 2 2 2 1 1 3 2 1 2 3 3 4 1 2 1 2 1 1 2 5 6 6 5 7 14 4 8 24 33 34 39 27
16 10 9 10 8 6 3 4 3 2 6 2 4 2 4 3 3 1 2 3 4 2 2 2 6 2 1 1 2 2 4 2 2 5 7 7 13 12 14 19 20 22 32 33 37
17 5 6 12 10 5 3 5 3 3 3 3 4 4 2 3 2 3 4 2 4 4 1 3 2 0 1 4 1 2 2 3 3 3 4 7 9 4 13 20 23 24 36 36 37
19 4 9 16 4 1 3 5 5 5 4 2 3 3 4 7 4 4 5 3 7 7 3 4 2 5 3 2 3 3 2 2 3 2 5 6 9 6 13 21 30 29 30 37 34
22 9 13 18 3 3 1 2 5 6 5 5 4 1 2 5 3 4 4 3 7 6 5 6 2 5 2 3 3 4 5 5 1 1 9 4 9 15 18 22 33 27 33 36 34
13 4 5 12 6 3 5 4 5 5 4 4 4 5 3 2 1 4 5 5 7 6 6 5 3 5 5 4 2 7 5 7 4 4 5 11 19 24 25 25 25 28 34 34 33
10 6 10 6 8 6 1 7 7 7 4 7 3 8 6 4 3 4 4 4 3 5 5 4 4 5 11 17 15 18 19 14 15 12 7 10 13 25 21 21 20 24 35 32 33
18 10 10 8 7 12 3 6 10 5 10 6 6 10 10 5 4 8 8 5 5 7 7 3 3 3 5 4 3 9 16 17 16 16 18 23 25 12 26 29 25 27 32 32 33
18 19 17 14 9 7 9 7 9 11 7 3 12 7 10 9 5 4 4 8 10 8 8 5 2 2 5 6 11 7 8 12 6 10 6 8 11 14 18 18 20 29 31 31 32
Wind_Direction
6 3 360 357 356 4 6 10 13 22 24 8 12 356 221 35 34 38 40 14 5 9 9 34 62 132 132 121 135 182 239 255 258 263 311 347 347 325 324 285 320 304 314 307 328
2 1 1 359 1 10 6 10 14 32 25 26 26 13 220 241 24 29 23 14 9 13 32 106 120 132 94 78 48 215 230 242 5 352 309 322 324 319 310 301 296 298 288 315 313
359 1 4 4 6 10 9 8 18 36 39 36 28 36 49 177 38 6 13 17 13 16 41 91 119 107 89 89 31 267 265 66 173 336 328 309 297 298 287 282 291 306 307 311 310
356 2 4 5 8 9 5 4 13 12 14 37 33 35 43 83 45 360 12 19 20 21 52 60 122 67 77 90 17 252 6 342 325 322 313 305 307 286 278 278 288 298 306 311 309
354 357 1 6 10 11 4 358 356 356 294 340 20 20 47 58 22 3 22 25 32 37 49 59 68 84 103 95 106 48 332 290 281 295 276 298 286 286 275 279 270 289 303 306 304
349 353 355 1 9 10 1 360 3 6 32 33 40 41 73 72 16 4 34 29 41 48 53 60 65 86 95 82 36 325 289 284 245 348 330 329 308 267 292 225 281 306 306 307 305
343 351 349 359 360 3 354 358 6 14 1 22 46 206 61 67 27 14 27 33 34 48 55 60 60 66 91 107 359 325 299 292 197 342 341 329 244 257 296 281 299 304 305 308 308
341 346 349 350 359 357 354 6 6 49 19 21 349 49 79 36 19 25 36 23 24 42 52 52 48 52 46 11 22 356 335 341 335 341 10 345 309 294 299 316 303 304 305 309 316
335 341 346 345 354 356 353 64 36 52 51 43 22 111 43 13 11 18 27 25 27 62 52 50 62 64 30 9 143 35 322 318 312 315 305 314 299 287 306 309 301 307 312 324 348
326 337 342 346 349 351 355 328 333 25 237 338 31 107 25 341 8 13 11 25 34 56 54 41 47 51 30 20 8 324 318 304 297 332 324 302 288 301 311 309 302 307 310 326 332
316 328 335 338 346 355 354 345 350 80 80 88 59 77 10 358 3 6 13 23 33 51 33 18 45 35 4 2 308 287 286 291 296 331 324 306 296 307 313 310 296 206 251 315 323
307 322 327 334 345 354 5 24 50 144 86 73 63 42 23 8 2 8 16 41 36 46 339 166 63 27 321 318 303 298 293 309 305 241 328 316 302 309 301 252 215 205 269 317 324
298 310 316 324 340 353 21 39 110 137 69 44 50 42 12 9 36 4 15 20 32 35 22 52 84 330 323 323 330 323 276 324 314 315 283 306 287 283 266 224 220 225 275 300 316
291 302 307 317 319 353 23 24 148 140 89 359 2 30 15 42 60 11 15 22 41 23 349 54 45 326 311 321 341 311 313 306 302 314 302 18 286 301 225 289 236 234 272 316 325
280 286 291 300 314 22 18 26 148 72 311 113 10 8 43 77 325 1 18 37 65 333 298 29 327 333 339 346 331 276 316 294 300 275 317 172 257 272 299 295 252 259 316 321 321
267 268 264 262 252 108 27 97 93 54 258 205 329 341 112 39 26 341 14 39 65 213 29 323 302 270 339 303 281 306 301 306 183 274 256 203 251 283 301 298 292 288 315 323 324
258 256 244 235 244 172 91 133 39 176 58 263 36 18 71 27 57 17 29 34 20 358 357 323 126 123 357 316 182 348 330 341 333 307 284 151 296 264 295 294 283 313 324 324 321
244 245 239 225 221 191 139 55 191 340 203 142 147 109 102 1 60 27 102 84 47 10 54 341 306 349 24 7 324 6 356 39 306 310 296 290 236 281 317 306 312 324 323 323 319
234 228 228 222 208 197 138 104 224 201 138 157 118 115 117 109 16 113 55 126 89 0 334 321 262 231 213 0 253 93 357 21 264 248 273 258 274 286 12 331 325 321 322 322 320
217 214 221 211 195 184 81 243 226 149 137 155 192 262 164 171 180 166 176 174 161 226 282 203 288 165 10 267 213 276 354 246 215 303 298 276 298 314 347 330 320 327 328 326 324
195 185 219 193 176 174 186 226 219 203 162 181 182 140 159 173 178 180 159 177 189 168 223 172 269 142 272 197 261 196 186 216 281 257 290 309 300 5 343 328 336 330 330 330 329
183 145 192 175 164 254 185 188 155 165 199 151 123 98 157 171 151 205 209 225 166 162 200 188 205 269 251 139 274 230 216 217 248 267 262 275 274 286 331 340 338 324 330 333 331
165 131 173 178 178 212 257 171 188 153 203 171 158 82 152 168 185 204 208 162 165 164 190 184 226 303 176 156 171 222 193 207 111 275 246 274 277 313 326 337 331 326 335 335 334
157 127 147 195 251 190 168 199 186 197 157 148 127 117 139 144 282 180 213 180 186 187 183 176 193 234 248 301 4 266 237 230 162 237 267 246 283 301 325 334 329 335 337 337 340
171 174 172 172 223 227 243 169 151 173 206 179 159 216 176 151 167 218 178 158 173 194 185 198 254 217 263 270 277 274 268 250 228 222 240 287 301 301 315 330 324 332 338 341 346
160 154 155 157 143 172 212 221 180 164 160 206 210 193 188 172 197 193 159 196 175 178 177 178 267 298 280 282 258 271 259 250 241 242 255 268 280 279 332 329 334 343 343 346 349
198 169 173 164 146 159 209 217 205 136 221 205 195 134 202 219 142 99 104 121 158 168 171 169 230 335 269 340 310 267 240 199 186 193 199 259 297 327 326 327 339 346 348 348 349
Height
1542 1540 1539 1537 1536 1534 1532 1531 1529 1527 1525 1523 1522 1521 1520 1519 1518 1514 1508 1514 1511 1507 1504 1503 1503 1503 1504 1506 1507 1506 1504 1497 1499 1500 1498 1507 1503 1498 1498 1498 1494 1492 1493 1492 1488
1542 1540 1538 1537 1536 1534 1533 1531 1530 1528 1525 1524 1522 1519 1518 1519 1519 1516 1517 1514 1511 1507 1505 1503 1503 1504 1506 1508 1509 1508 1506 1500 1509 1509 1505 1506 1506 1505 1502 1496 1493 1490 1490 1490 1486
1542 1540 1538 1537 1536 1534 1533 1531 1529 1528 1527 1525 1523 1521 1520 1519 1520 1520 1517 1515 1511 1507 1505 1503 1503 1504 1506 1509 1511 1510 1502 1510 1509 1510 1510 1508 1506 1505 1502 1494 1492 1490 1489 1486 1485
1542 1540 1538 1537 1536 1534 1533 1531 1529 1528 1527 1526 1524 1523 1521 1520 1524 1522 1518 1515 1512 1509 1506 1505 1504 1506 1507 1508 1511 1508 1510 1509 1509 1509 1508 1506 1505 1500 1499 1493 1492 1490 1488 1485 1484
1542 1540 1538 1536 1535 1534 1533 1531 1529 1528 1527 1526 1524 1523 1522 1522 1526 1522 1519 1517 1515 1512 1507 1506 1505 1508 1509 1512 1513 1511 1512 1512 1511 1511 1510 1508 1504 1502 1495 1491 1489 1487 1485 1483 1481
1542 1540 1538 1536 1535 1533 1532 1531 1529 1528 1527 1527 1525 1524 1523 1525 1526 1522 1519 1518 1516 1513 1511 1509 1509 1509 1512 1514 1513 1515 1513 1510 1510 1509 1507 1505 1498 1495 1487 1485 1484 1483 1480 1478 1476
1541 1539 1538 1536 1535 1533 1532 1530 1529 1528 1528 1527 1526 1526 1525 1529 1525 1522 1520 1518 1516 1514 1513 1511 1511 1512 1514 1515 1516 1514 1509 1505 1505 1505 1503 1501 1489 1486 1482 1483 1482 1478 1475 1472 1470
1541 1539 1537 1536 1534 1533 1531 1530 1529 1528 1527 1527 1527 1527 1527 1527 1526 1523 1520 1519 1517 1516 1514 1513 1513 1512 1514 1517 1517 1514 1510 1503 1498 1503 1502 1501 1481 1478 1476 1480 1476 1474 1471 1468 1465
1540 1538 1537 1536 1534 1532 1531 1529 1528 1528 1528 1527 1528 1527 1530 1529 1527 1523 1521 1520 1518 1517 1516 1515 1515 1516 1517 1515 1509 1515 1509 1511 1504 1503 1504 1500 1487 1472 1474 1474 1470 1468 1467 1465 1461
1539 1538 1536 1535 1533 1532 1531 1529 1528 1528 1527 1528 1528 1531 1531 1530 1527 1524 1521 1520 1518 1517 1518 1517 1518 1519 1518 1513 1516 1520 1516 1514 1507 1501 1502 1494 1479 1469 1469 1468 1465 1464 1464 1462 1460
1538 1536 1535 1534 1533 1532 1531 1530 1532 1531 1527 1530 1532 1531 1531 1530 1529 1526 1522 1521 1519 1517 1519 1522 1518 1524 1528 1528 1528 1527 1523 1514 1503 1501 1502 1488 1474 1466 1463 1462 1461 1461 1460 1458 1457
1537 1535 1534 1533 1532 1531 1530 1529 1529 1531 1532 1530 1531 1532 1531 1529 1529 1527 1524 1524 1522 1522 1523 1520 1523 1530 1531 1529 1528 1524 1517 1505 1500 1502 1501 1482 1469 1460 1459 1459 1458 1458 1457 1456 1453
1536 1535 1534 1533 1532 1531 1530 1530 1529 1530 1532 1534 1531 1531 1533 1533 1532 1530 1528 1527 1527 1526 1528 1521 1528 1531 1530 1527 1525 1516 1514 1509 1512 1499 1490 1487 1459 1457 1455 1458 1458 1457 1455 1452 1450
1534 1534 1533 1532 1533 1530 1530 1530 1530 1530 1532 1536 1533 1532 1533 1532 1534 1533 1530 1532 1531 1530 1530 1527 1531 1530 1526 1525 1527 1518 1516 1515 1509 1506 1490 1493 1475 1453 1453 1451 1453 1452 1450 1449 1446
1532 1532 1532 1531 1531 1531 1532 1530 1530 1532 1528 1535 1533 1533 1530 1532 1537 1535 1532 1531 1531 1533 1533 1527 1530 1527 1523 1525 1527 1517 1515 1510 1507 1505 1506 1488 1497 1448 1444 1445 1446 1449 1449 1445 1442
1530 1531 1531 1531 1531 1530 1530 1530 1532 1534 1526 1536 1533 1534 1532 1533 1536 1535 1534 1532 1534 1533 1534 1532 1534 1532 1527 1526 1525 1521 1509 1506 1506 1504 1500 1483 1483 1447 1443 1445 1445 1449 1448 1445 1439
1527 1529 1530 1530 1532 1528 1530 1532 1538 1529 1541 1537 1536 1536 1535 1537 1537 1539 1540 1538 1538 1531 1533 1529 1529 1531 1530 1524 1522 1520 1513 1500 1495 1491 1477 1484 1482 1452 1446 1445 1448 1448 1445 1442 1436
1524 1527 1527 1528 1530 1528 1530 1534 1533 1539 1533 1538 1537 1537 1533 1541 1541 1541 1541 1540 1546 1547 1543 1535 1514 1528 1531 1529 1528 1527 1525 1519 1516 1494 1485 1478 1480 1447 1448 1448 1449 1447 1442 1435 1427
1521 1523 1524 1526 1528 1529 1530 1537 1524 1527 1531 1534 1538 1533 1538 1542 1542 1540 1543 1543 1545 1550 1544 1537 1524 1530 1531 1531 1532 1527 1523 1526 1525 1515 1510 1471 1460 1447 1448 1449 1448 1445 1439 1429 1421
1517 1521 1522 1525 1526 1529 1531 1526 1527 1526 1528 1531 1525 1538 1528 1539 1538 1540 1544 1545 1545 1549 1550 1548 1537 1528 1530 1531 1531 1529 1530 1525 1523 1512 1494 1465 1457 1440 1446 1450 1447 1441 1432 1423 1416
1515 1519 1520 1522 1525 1527 1529 1527 1527 1526 1527 1528 1528 1540 1536 1537 1541 1543 1542 1547 1544 1548 1550 1549 1548 1525 1531 1526 1523 1528 1527 1530 1528 1519 1505 1486 1449 1448 1450 1448 1441 1437 1429 1420 1411
1510 1516 1517 1520 1526 1526 1523 1523 1524 1526 1527 1526 1528 1531 1531 1541 1539 1541 1536 1541 1543 1545 1550 1549 1549 1538 1521 1527 1529 1526 1528 1527 1524 1515 1512 1509 1469 1449 1445 1444 1442 1435 1426 1419 1409
1502 1507 1514 1518 1519 1521 1522 1520 1521 1524 1525 1526 1527 1528 1537 1537 1533 1541 1540 1541 1542 1544 1548 1548 1548 1534 1513 1527 1527 1523 1522 1522 1530 1530 1514 1507 1458 1441 1444 1443 1441 1432 1424 1415 1405
1496 1505 1512 1515 1517 1514 1517 1517 1519 1520 1522 1523 1526 1528 1534 1538 1540 1538 1539 1540 1541 1542 1545 1546 1548 1538 1510 1510 1524 1520 1519 1520 1528 1527 1504 1489 1461 1447 1445 1444 1437 1429 1423 1414 1404
1485 1489 1493 1506 1509 1511 1510 1509 1512 1516 1519 1520 1523 1522 1523 1535 1538 1537 1537 1539 1541 1543 1545 1544 1545 1547 1535 1525 1525 1521 1518 1518 1519 1514 1509 1467 1477 1460 1453 1448 1439 1432 1422 1412 1403
1469 1479 1489 1494 1496 1505 1510 1507 1503 1509 1510 1514 1515 1513 1519 1523 1519 1528 1530 1533 1532 1542 1541 1543 1539 1542 1535 1525 1521 1517 1506 1505 1508 1510 1504 1493 1477 1459 1454 1448 1440 1434 1423 1413 1405
1464 1465 1474 1487 1493 1500 1497 1498 1498 1497 1505 1506 1506 1512 1517 1517 1518 1521 1525 1525 1527 1533 1537 1540 1543 1544 1516 1527 1521 1505 1485 1485 1489 1490 1489 1479 1460 1458 1454 1449 1444 1436 1426 1418 1409